CAPE
0 0 0 0 0 0 0 0 0 0 0 0 0 0 0 0 0 0 4 195 640 627 1017 994 1121 1294 1485 1566 1512 1632 1683 1761 1775 1935 2089 2081 2049 2040 1975 1822 1636 1480 971 542 191 57 45 349 435
0 0 0 0 0 0 0 0 0 0 0 0 0 11 0 10 0 0 11 540 549 497 862 871 1091 1240 1479 1552 1537 1603 1635 1655 1881 1914 1898 1987 1728 1659 1713 1602 1488 1392 1090 605 101 15 14 64 201
0 0 0 0 0 0 0 0 40 13 17 0 29 5 7 0 0 0 192 535 538 477 799 883 949 1111 1392 1472 1493 1487 1580 1595 1682 1833 1791 1725 1491 1373 1379 1440 1379 1371 1134 432 239 35 39 145 133
0 0 0 0 0 0 0 0 0 29 43 5 0 13 0 0 0 69 349 484 433 445 721 666 742 972 1267 1436 1375 1252 1183 1179 1312 1565 1844 1736 1520 1281 1377 1267 1347 1285 1067 449 490 152 69 51 33
0 0 0 0 0 0 0 0 7 91 21 4 0 19 0 0 25 159 287 369 306 380 501 491 650 875 1171 1385 1298 1077 935 949 1114 1297 1420 1557 1506 1338 1254 1194 1193 1151 1099 632 509 205 98 9 0
0 0 0 0 0 0 0 0 1 2 20 28 20 1 0 0 0 52 229 268 316 355 446 615 748 841 1027 1105 981 784 766 828 897 976 1122 1196 1076 993 1080 1010 978 1001 968 780 478 172 32 1 0
0 0 0 0 0 0 0 0 0 0 16 31 7 0 0 0 0 191 164 233 277 284 328 556 757 805 772 733 699 638 641 699 726 786 849 765 672 712 845 901 814 736 586 376 228 64 1 0 0
0 0 0 0 0 0 0 0 0 0 0 16 36 32 0 0 205 150 142 195 211 276 210 214 475 639 459 453 532 522 535 537 547 618 634 477 403 562 685 684 749 643 459 244 53 7 0 0 0
0 0 0 0 0 0 0 0 0 0 21 0 0 6 7 211 136 83 65 69 107 47 99 218 303 267 266 297 423 422 452 416 429 436 438 160 160 209 348 395 497 510 337 186 42 0 0 0 0
0 0 0 0 0 0 0 0 0 0 0 0 0 0 0 0 0 0 32 69 73 144 36 53 105 96 207 491 325 168 261 177 135 135 109 1 0 0 110 147 261 317 190 114 19 0 0 0 0
0 0 0 0 0 0 0 0 0 0 0 0 0 0 0 0 0 0 0 0 114 63 162 158 107 117 231 388 109 58 79 37 32 42 10 0 0 0 0 0 3 6 53 0 0 0 0 0 0
0 0 0 0 0 0 0 0 0 0 0 0 0 0 0 0 0 0 0 0 0 0 55 111 124 205 162 94 75 34 30 0 0 0 0 0 0 0 0 0 0 0 0 0 0 0 0 0 0
0 0 0 0 0 0 0 0 0 0 0 0 0 0 0 0 0 0 0 0 0 0 0 0 49 80 80 68 21 11 11 13 0 0 0 0 0 0 0 0 0 0 0 0 0 0 0 0 0
0 0 0 0 0 0 0 0 0 0 0 0 0 0 0 0 0 0 0 0 0 0 0 0 0 55 56 71 55 1 0 13 0 1 0 0 0 0 0 0 0 0 0 0 0 0 0 0 0
0 0 0 0 0 0 0 0 0 0 0 0 0 0 0 0 0 0 0 0 0 0 0 0 0 0 0 1 13 13 56 12 1 0 0 0 4 7 0 0 0 0 0 0 0 0 0 0 0
0 0 0 0 0 0 0 0 0 0 0 0 0 0 0 0 0 0 0 0 0 0 0 0 0 0 0 0 0 0 0 0 0 0 0 0 0 0 0 20 2 0 0 0 0 0 0 0 0
0 0 0 0 0 0 0 0 0 0 0 0 0 0 0 0 0 0 0 0 0 0 0 0 0 0 0 0 0 0 0 0 0 0 0 0 0 0 0 0 0 1 3 0 0 0 0 0 0
0 0 0 0 0 0 0 0 0 0 0 0 0 0 0 0 0 0 0 0 0 0 0 0 0 0 0 0 0 0 0 0 0 0 0 0 0 0 0 1 0 0 0 3 5 0 0 0 0
0 0 0 0 0 0 0 0 0 0 0 0 0 0 0 0 0 0 0 0 0 0 0 0 0 0 0 0 0 0 0 0 0 0 0 0 0 0 0 0 0 0 7 3 0 4 6 0 0
0 0 0 0 0 0 0 0 0 0 0 0 0 0 0 0 0 0 0 0 0 0 0 0 0 0 0 0 0 0 0 0 0 0 0 0 0 0 0 0 0 0 0 2 3 5 6 7 4
0 0 0 0 0 0 0 0 0 0 0 0 0 0 0 0 0 0 0 0 0 0 0 0 0 0 0 0 0 0 0 0 0 0 0 0 0 0 0 0 0 0 0 3 4 2 6 13 2
0 0 0 0 0 0 0 0 0 0 0 0 0 0 0 0 0 0 0 0 0 0 0 0 0 0 0 0 0 0 0 0 0 0 0 0 0 0 0 0 0 0 0 0 0 7 1 13 11
0 0 0 0 0 0 0 0 0 0 0 0 0 0 0 0 0 0 0 0 0 0 0 0 0 0 0 0 0 0 0 0 0 0 0 0 0 0 0 0 0 0 0 0 0 0 0 15 16
0 0 0 0 0 0 0 0 0 0 0 0 0 0 0 0 0 0 0 0 0 0 0 0 0 0 0 0 0 0 0 0 0 0 0 0 0 0 0 0 0 0 0 0 0 0 0 0 6
0 0 0 0 0 0 0 0 0 0 0 0 0 0 0 0 0 0 0 0 0 0 0 0 0 0 0 0 0 0 0 0 0 0 0 0 0 0 0 0 0 0 0 0 0 0 0 0 2
0 0 0 0 0 0 0 0 0 0 0 0 0 0 0 0 0 0 0 0 0 0 0 0 0 0 0 0 0 0 0 0 0 0 0 0 0 0 0 0 0 0 0 0 0 0 0 0 1
0 0 0 0 0 0 0 0 0 0 0 0 0 0 0 0 0 0 0 0 0 0 0 0 0 0 0 0 0 0 0 0 0 0 0 0 0 0 0 0 0 0 0 0 1 4 0 2 5
0 0 0 0 0 0 0 0 0 0 0 0 0 0 0 0 0 0 0 0 0 0 0 0 0 0 0 0 0 0 0 0 0 0 0 0 0 0 0 0 0 0 0 0 0 0 2 6 3
0 0 0 0 0 0 0 0 0 0 0 0 0 0 0 0 0 0 0 0 0 0 0 0 0 0 0 0 0 0 0 0 0 0 0 0 0 0 0 0 0 0 0 0 0 3 3 3 0
0 0 0 0 0 0 0 0 0 0 0 0 0 0 0 0 0 0 0 0 0 0 0 0 0 0 0 0 0 0 0 0 0 0 0 0 0 0 0 0 0 0 0 0 2 3 6 3 3
CIN
-0 -0 -0 -0 -0 -0 -0 -0 -0 -0 -0 -0 -0 -0 -0 -0 -0 -0 -77 -284 -111 -84 -49 -54 -73 -77 -61 -19 -9 -6 -0 -0 -0 -0 -0 -0 -0 -0 -0 -1 -1 -0 -0 -18 -65 -157 -175 -37 -27
-0 -0 -0 -0 -0 -0 -0 -0 -0 -0 -0 -0 -10 -440 -0 -479 -0 -0 -172 -154 -130 -105 -66 -66 -67 -92 -65 -25 -3 -0 -0 -0 -0 -0 -0 -0 -0 -0 -0 -1 -1 -1 -0 -5 -104 -256 -258 -148 -63
-0 -0 -0 -0 -0 -0 -0 -0 -207 -228 -323 -0 -309 -126 -442 -0 -0 -0 -368 -198 -145 -122 -77 -67 -65 -98 -78 -43 -17 -2 -0 -0 -0 -0 -0 -0 -0 -0 -0 -1 -0 -0 -3 -38 -48 -219 -194 -92 -91
-0 -0 -0 -0 -0 -0 -0 -0 -6 -248 -318 -311 -9 -272 -0 -0 -0 -617 -339 -239 -212 -165 -90 -102 -88 -93 -73 -48 -31 -23 -11 -2 -1 -0 -0 -0 -0 -0 -0 -1 -0 -3 -11 -57 -39 -99 -160 -198 -222
-0 -0 -0 -0 -0 -0 -0 -0 -366 -214 -363 -176 -34 -535 -0 -0 -717 -539 -383 -274 -266 -199 -133 -135 -100 -95 -68 -42 -36 -36 -27 -13 -1 -0 -0 -0 -0 -0 -0 -1 -0 -1 -6 -52 -62 -113 -148 -319 -0
-0 -0 -0 -0 -0 -0 -0 -0 -385 -136 -424 -456 -505 -187 -0 -0 -0 -578 -407 -351 -271 -222 -171 -102 -75 -81 -71 -59 -48 -51 -47 -26 -9 -3 -1 -1 -4 -11 -1 -2 -6 -7 -11 -28 -62 -151 -249 -108 -0
-0 -0 -0 -0 -0 -0 -0 -0 -0 -21 -395 -387 -127 -83 -0 -0 -0 -492 -490 -402 -348 -322 -292 -170 -98 -84 -82 -84 -79 -60 -37 -36 -46 -32 -17 -40 -68 -56 -30 -17 -15 -20 -49 -88 -131 -215 -383 -0 -0
-0 -0 -0 -0 -0 -0 -0 -0 -0 -0 -10 -475 -439 -464 -11 -0 -519 -600 -542 -437 -388 -349 -392 -358 -209 -140 -171 -153 -111 -103 -80 -62 -36 -39 -55 -66 -74 -71 -71 -58 -39 -52 -71 -120 -222 -316 -0 -0 -0
-0 -0 -0 -0 -0 -0 -0 -0 -0 -0 -265 -0 -0 -338 -185 -465 -517 -597 -589 -532 -486 -545 -480 -356 -265 -250 -227 -203 -147 -117 -94 -89 -87 -74 -52 -142 -145 -114 -71 -76 -83 -81 -102 -140 -232 -0 -0 -0 -0
-0 -0 -0 -0 -0 -0 -0 -0 -0 -0 -0 -0 -0 -0 -158 -0 -0 -0 -205 -499 -485 -420 -527 -486 -427 -435 -288 -133 -163 -218 -160 -182 -185 -169 -176 -0 -0 -0 -148 -134 -90 -66 -115 -160 -135 -0 -0 -0 -0
-0 -0 -0 -0 -0 -0 -0 -0 -0 -0 -0 -0 -0 -0 -0 -0 -0 -0 -0 -0 -409 -460 -353 -345 -387 -370 -262 -158 -317 -330 -261 -307 -304 -262 -319 -0 -0 -0 -0 -0 -16 -29 -194 -0 -0 -0 -0 -0 -0
-0 -0 -0 -0 -0 -0 -0 -0 -0 -0 -0 -0 -0 -0 -0 -0 -0 -0 -0 -0 -0 -0 -241 -369 -352 -252 -279 -328 -331 -390 -364 -0 -0 -0 -0 -0 -0 -0 -0 -0 -0 -0 -0 -0 -0 -0 -0 -0 -0
-0 -0 -0 -0 -0 -0 -0 -0 -0 -0 -0 -0 -0 -0 -0 -0 -0 -0 -0 -0 -0 -0 -0 -0 -408 -348 -344 -329 -391 -409 -405 -386 -0 -0 -0 -0 -0 -0 -0 -0 -0 -0 -0 -0 -0 -0 -0 -0 -0
-0 -0 -0 -0 -0 -0 -0 -0 -0 -0 -0 -0 -0 -0 -0 -0 -0 -0 -0 -0 -0 -0 -0 -0 -0 -196 -295 -271 -279 -171 -0 -335 -38 -130 -7 -0 -0 -0 -0 -0 -0 -0 -0 -0 -0 -0 -0 -0 -0
-0 -0 -0 -0 -0 -0 -0 -0 -0 -0 -0 -0 -0 -0 -0 -0 -0 -0 -0 -0 -0 -0 -0 -0 -0 -0 -0 -25 -321 -204 -221 -304 -22 -12 -1 -8 -115 -92 -0 -0 -0 -0 -0 -0 -0 -0 -0 -0 -0
-0 -0 -0 -0 -0 -0 -0 -0 -0 -0 -0 -0 -0 -0 -0 -0 -0 -0 -0 -0 -0 -0 -0 -0 -0 -0 -0 -0 -0 -0 -0 -0 -0 -0 -0 -0 -0 -0 -0 -175 -150 -0 -0 -0 -0 -0 -0 -0 -0
-0 -0 -0 -0 -0 -0 -0 -0 -0 -0 -0 -0 -0 -0 -0 -0 -0 -0 -0 -0 -0 -0 -0 -0 -0 -0 -0 -0 -0 -0 -0 -0 -0 -0 -0 -0 -0 -0 -0 -0 -0 -85 -136 -0 -0 -0 -0 -0 -0
-0 -0 -0 -0 -0 -0 -0 -0 -0 -0 -0 -0 -0 -0 -0 -0 -0 -0 -0 -0 -0 -0 -0 -0 -0 -0 -0 -0 -0 -0 -0 -0 -0 -0 -0 -0 -0 -0 -0 -0 -0 -0 -0 -0 -29 -0 -0 -0 -0
-0 -0 -0 -0 -0 -0 -0 -0 -0 -0 -0 -0 -0 -0 -0 -0 -0 -0 -0 -0 -0 -0 -0 -0 -0 -0 -0 -0 -0 -0 -0 -0 -0 -0 -0 -0 -0 -0 -0 -0 -0 -0 -0 -0 -0 -0 -0 -51 -0
-0 -0 -0 -0 -0 -0 -0 -0 -0 -0 -0 -0 -0 -0 -0 -0 -0 -0 -0 -0 -0 -0 -0 -0 -0 -0 -0 -0 -0 -0 -0 -0 -0 -0 -0 -0 -0 -0 -0 -0 -0 -0 -0 -0 -0 -0 -0 -0 -0
-0 -0 -0 -0 -0 -0 -0 -0 -0 -0 -0 -0 -0 -0 -0 -0 -0 -0 -0 -0 -0 -0 -0 -0 -0 -0 -0 -0 -0 -0 -0 -0 -0 -0 -0 -0 -0 -0 -0 -0 -0 -0 -0 -0 -0 -0 -0 -0 -0
-0 -0 -0 -0 -0 -0 -0 -0 -0 -0 -0 -0 -0 -0 -0 -0 -0 -0 -0 -0 -0 -0 -0 -0 -0 -0 -0 -0 -0 -0 -0 -0 -0 -0 -0 -0 -0 -0 -0 -0 -0 -0 -0 -0 -0 -0 -0 -0 -0
-0 -0 -0 -0 -0 -0 -0 -0 -0 -0 -0 -0 -0 -0 -0 -0 -0 -0 -0 -0 -0 -0 -0 -0 -0 -0 -0 -0 -0 -0 -0 -0 -0 -0 -0 -0 -0 -0 -0 -0 -0 -0 -0 -0 -0 -0 -0 -0 -0
-0 -0 -0 -0 -0 -0 -0 -0 -0 -0 -0 -0 -0 -0 -0 -0 -0 -0 -0 -0 -0 -0 -0 -0 -0 -0 -0 -0 -0 -0 -0 -0 -0 -0 -0 -0 -0 -0 -0 -0 -0 -0 -0 -0 -0 -0 -0 -0 -0
-0 -0 -0 -0 -0 -0 -0 -0 -0 -0 -0 -0 -0 -0 -0 -0 -0 -0 -0 -0 -0 -0 -0 -0 -0 -0 -0 -0 -0 -0 -0 -0 -0 -0 -0 -0 -0 -0 -0 -0 -0 -0 -0 -0 -0 -0 -0 -0 -0
-0 -0 -0 -0 -0 -0 -0 -0 -0 -0 -0 -0 -0 -0 -0 -0 -0 -0 -0 -0 -0 -0 -0 -0 -0 -0 -0 -0 -0 -0 -0 -0 -0 -0 -0 -0 -0 -0 -0 -0 -0 -0 -0 -0 -0 -0 -0 -0 -5
-0 -0 -0 -0 -0 -0 -0 -0 -0 -0 -0 -0 -0 -0 -0 -0 -0 -0 -0 -0 -0 -0 -0 -0 -0 -0 -0 -0 -0 -0 -0 -0 -0 -0 -0 -0 -0 -0 -0 -0 -0 -0 -0 -0 -5 -4 -0 -4 -2
-0 -0 -0 -0 -0 -0 -0 -0 -0 -0 -0 -0 -0 -0 -0 -0 -0 -0 -0 -0 -0 -0 -0 -0 -0 -0 -0 -0 -0 -0 -0 -0 -0 -0 -0 -0 -0 -0 -0 -0 -0 -0 -0 -0 -0 -0 -3 -1 -0
-0 -0 -0 -0 -0 -0 -0 -0 -0 -0 -0 -0 -0 -0 -0 -0 -0 -0 -0 -0 -0 -0 -0 -0 -0 -0 -0 -0 -0 -0 -0 -0 -0 -0 -0 -0 -0 -0 -0 -0 -0 -0 -0 -0 -0 -1 -1 -2 -0
-0 -0 -0 -0 -0 -0 -0 -0 -0 -0 -0 -0 -0 -0 -0 -0 -0 -0 -0 -0 -0 -0 -0 -0 -0 -0 -0 -0 -0 -0 -0 -0 -0 -0 -0 -0 -0 -0 -0 -0 -0 -0 -0 -0 -2 -0 -1 -1 -2
Wind_Speed
5 2 2 3 2 5 1 3 3 4 4 5 3 7 7 3 3 6 2 5 16 15 12 10 13 16 17 13 11 13 14 13 13 12 11 11 11 11 11 11 12 10 12 12 11 12 12 12 12
3 3 3 1 6 4 5 2 5 4 6 8 6 5 6 5 4 6 4 9 15 14 11 9 12 17 18 15 11 10 13 13 12 11 11 12 11 10 9 10 11 10 11 11 11 13 12 12 11
2 2 4 5 4 2 4 1 7 10 7 3 4 4 5 3 4 5 9 12 14 13 10 9 10 15 18 17 13 10 9 10 11 10 11 11 12 11 9 8 8 9 10 11 11 11 11 9 8
2 5 5 5 1 2 3 4 3 6 2 7 2 8 6 4 3 8 12 11 12 12 8 11 11 13 15 16 15 12 10 7 8 9 10 10 9 10 8 7 6 7 9 11 10 10 9 8 7
5 4 4 4 4 3 5 3 2 3 3 6 2 5 5 4 14 15 12 10 11 10 7 8 10 12 13 14 13 13 11 9 7 7 8 9 9 7 7 7 6 6 7 7 9 9 8 7 6
4 4 5 3 1 4 5 8 7 13 12 11 9 6 4 5 13 8 9 8 7 12 7 6 9 10 12 12 11 10 11 10 8 8 7 7 7 8 6 5 6 6 5 4 4 6 7 7 6
5 4 5 4 5 3 2 1 1 2 8 6 4 5 4 3 6 10 8 8 8 9 9 7 6 8 9 10 11 9 8 8 10 9 7 7 7 6 6 6 5 5 4 3 2 2 2 2 2
5 5 5 2 5 1 3 3 2 5 6 7 5 6 5 4 8 10 7 6 10 9 5 7 7 8 5 6 9 10 9 8 5 5 6 5 4 5 6 5 4 5 4 4 4 4 5 5 5
3 5 3 7 8 6 4 5 3 4 9 7 8 6 8 11 9 8 6 4 5 6 7 5 8 9 6 5 6 8 9 8 8 6 3 1 1 2 2 3 6 6 6 6 6 6 7 7 8
5 4 8 4 7 8 4 5 2 9 9 10 14 17 16 13 11 9 6 3 3 0 6 5 8 9 6 5 5 4 5 4 4 4 5 3 2 2 3 4 5 5 6 7 8 8 7 6 4
4 5 4 1 4 7 8 8 5 11 11 9 10 14 15 17 14 13 11 5 1 2 0 2 3 3 4 4 4 3 2 2 2 5 5 4 3 3 3 2 3 3 5 3 4 5 4 5 4
3 0 3 4 5 5 6 5 11 13 9 12 15 14 17 17 15 13 12 12 10 8 3 3 2 2 2 2 2 2 3 3 3 4 5 4 3 4 4 3 4 4 3 4 4 3 5 6 6
5 4 3 5 9 9 20 16 20 17 12 14 17 19 18 14 13 13 12 12 11 13 10 6 4 3 2 1 1 2 4 3 4 4 4 4 4 4 4 4 4 4 4 4 5 5 5 6 6
6 6 7 4 9 6 22 6 7 5 10 17 20 18 16 17 14 13 15 14 14 11 13 9 10 3 4 4 3 2 3 4 4 3 4 5 4 3 4 4 4 4 5 5 6 6 6 6 5
9 9 6 2 4 11 11 11 9 7 11 18 17 15 16 16 15 16 12 13 11 10 11 13 11 11 10 10 7 6 6 6 8 7 11 8 4 4 4 4 5 6 5 6 5 5 4 5 5
6 5 7 5 6 3 9 4 4 6 12 15 14 13 13 13 14 13 13 13 12 12 15 14 11 12 12 11 11 9 9 9 10 10 10 13 13 11 10 5 5 4 4 4 5 6 6 6 6
5 7 6 4 2 5 7 9 7 7 10 13 11 11 13 12 13 11 11 12 13 12 14 15 15 13 11 9 10 9 11 9 10 9 9 13 14 14 10 9 10 11 4 3 4 5 5 5 6
7 6 2 7 5 8 9 8 10 7 10 13 11 12 12 12 10 9 10 10 11 12 13 15 12 11 10 9 8 8 8 8 7 9 9 13 11 14 12 10 11 11 9 9 8 6 4 6 7
13 8 7 2 8 10 9 14 10 7 6 9 9 11 12 12 7 8 9 9 11 12 14 16 15 15 8 5 2 5 8 9 9 9 14 14 13 14 12 9 10 11 10 10 10 9 10 7 3
8 10 4 7 4 11 9 7 4 9 7 11 12 10 12 9 7 9 9 9 9 8 11 12 13 15 10 7 5 4 3 6 7 8 10 13 13 14 13 11 10 12 10 11 11 12 7 5 11
5 16 8 11 6 10 15 4 6 5 3 6 5 9 10 11 10 8 9 7 7 8 8 9 8 10 9 9 5 3 4 4 8 9 8 9 11 11 12 12 11 11 9 9 11 11 11 8 7
11 11 14 18 14 10 4 7 6 9 10 9 10 8 10 9 7 7 8 7 7 6 6 6 7 9 9 8 11 13 9 8 5 4 5 6 8 9 11 10 9 8 7 10 9 9 10 8 9
16 14 20 18 10 14 6 6 5 13 13 14 12 11 10 9 9 8 8 7 6 6 7 6 7 8 8 9 9 8 8 3 2 3 6 6 6 6 8 8 8 8 7 8 10 11 10 8 5
8 11 11 6 5 6 14 6 6 19 23 19 15 14 13 11 8 8 6 6 6 5 6 6 7 7 7 7 7 8 7 6 6 6 6 6 4 5 7 8 7 6 7 8 8 9 10 9 9
15 20 5 3 6 8 14 7 9 22 20 26 24 18 15 13 12 11 9 7 7 7 5 5 7 6 6 7 7 7 7 7 6 6 5 7 6 6 8 6 7 6 6 6 7 7 10 10 10
22 16 11 10 10 6 10 13 6 19 24 21 21 19 16 13 11 11 9 8 7 7 6 6 6 5 5 6 6 5 6 4 3 4 3 4 4 4 6 7 5 6 6 6 5 4 7 10 7
7 7 10 9 2 5 6 3 6 13 19 18 20 19 17 14 11 11 8 8 7 7 7 7 7 6 6 5 5 6 6 6 5 6 5 4 5 7 8 7 7 7 8 8 6 4 8 8 9
6 8 6 2 8 7 4 4 6 19 20 20 21 20 16 13 11 9 8 8 6 7 6 6 6 7 5 6 5 4 5 6 6 6 7 6 6 7 8 9 9 9 10 10 9 8 9 12 10
3 3 2 5 5 7 4 10 12 23 25 26 23 21 19 16 14 12 10 7 8 7 6 6 6 7 6 6 5 6 6 6 6 5 6 6 6 7 9 9 10 10 10 10 9 12 11 11 11
3 6 5 7 7 2 3 7 15 25 26 25 22 20 18 17 15 12 12 10 8 8 7 7 6 7 6 6 6 6 6 6 6 6 6 6 8 7 9 9 10 10 10 9 11 14 13 14 13
Wind_Direction
314 292 136 51 74 62 316 298 135 67 41 326 118 97 106 31 69 146 24 111 121 144 145 141 138 127 116 111 111 113 114 110 105 102 98 96 98 96 99 106 99 101 106 101 103 101 104 108 105
335 150 57 70 76 85 282 287 41 97 141 143 84 99 58 66 63 106 97 124 129 142 141 138 144 130 121 117 111 112 120 120 115 111 106 103 100 98 91 91 102 106 116 108 105 105 107 110 108
211 45 80 85 82 143 240 15 128 147 162 259 125 67 69 84 123 119 119 128 133 142 139 140 145 133 128 127 123 117 116 119 118 114 111 108 111 111 107 103 114 115 113 112 104 107 108 98 99
60 9 34 85 355 260 253 337 97 141 330 29 84 63 69 328 126 129 127 120 130 137 133 138 143 134 131 131 130 125 120 117 118 119 117 114 107 108 108 109 110 115 120 113 107 104 103 101 108
35 60 49 69 318 350 334 13 108 98 50 11 39 71 60 33 102 116 120 121 132 127 119 133 138 134 133 131 131 131 131 133 129 119 118 118 116 111 116 119 109 106 103 124 127 124 121 125 128
37 96 61 102 62 6 13 38 67 101 100 94 75 87 62 118 114 118 120 120 127 130 118 123 135 132 130 129 130 135 140 142 142 140 133 122 121 124 117 113 117 115 117 125 146 144 154 158 169
122 86 169 140 133 68 128 106 62 188 89 50 103 75 115 164 123 123 128 134 129 132 133 133 130 134 129 132 133 136 143 148 150 150 148 142 141 137 135 136 140 146 153 173 200 228 238 221 232
107 90 117 307 174 142 292 113 226 50 41 150 126 135 179 183 131 115 108 118 133 137 132 141 138 145 135 140 143 147 150 152 153 154 152 150 161 163 155 157 167 170 187 202 221 249 267 274 281
115 63 150 186 152 168 298 118 339 20 89 41 13 80 107 106 86 75 70 55 125 146 156 149 149 155 149 138 154 152 155 157 157 157 166 145 173 216 248 217 190 193 205 215 227 243 263 285 296
100 120 207 212 160 156 170 112 122 73 32 43 53 49 69 68 59 53 50 50 13 200 171 167 164 162 152 149 143 153 163 161 166 168 165 184 216 266 243 246 250 244 229 220 229 244 257 276 284
150 185 203 31 127 139 131 49 20 103 41 36 83 73 65 63 52 48 37 15 256 92 90 187 173 159 155 150 155 159 170 178 193 187 185 197 196 202 223 250 260 239 235 245 267 271 248 251 261
142 26 168 170 130 104 83 74 65 64 93 90 79 77 66 56 47 41 37 30 29 37 342 163 185 160 176 115 181 187 169 193 206 217 207 193 204 217 227 217 220 227 235 242 233 232 251 261 262
123 150 73 141 98 69 87 75 99 78 83 82 82 64 62 60 54 42 39 39 31 35 13 4 145 150 176 111 317 235 217 198 216 230 223 204 213 222 218 226 220 225 204 218 232 233 240 246 251
143 105 112 124 88 87 107 89 80 72 97 82 75 70 64 59 50 50 37 32 35 28 21 13 34 44 143 175 217 283 318 329 326 323 335 316 302 247 219 234 236 230 210 227 233 233 236 238 229
127 87 81 129 102 118 96 26 87 108 101 89 81 81 73 66 56 53 45 41 28 34 32 26 32 25 41 43 39 34 11 42 29 14 27 5 346 291 273 295 288 249 222 226 219 235 237 252 253
96 67 127 248 188 11 88 153 129 134 115 97 94 87 78 64 60 51 42 43 33 35 36 37 34 35 35 44 52 52 36 50 43 32 25 16 18 10 345 301 271 277 284 278 247 232 233 233 234
17 157 167 184 207 118 101 142 179 147 128 114 112 106 94 77 58 50 48 44 38 34 38 39 35 36 43 34 68 53 46 41 44 36 32 22 20 17 6 12 3 349 310 255 252 267 258 255 241
164 131 140 157 174 81 100 127 145 142 135 123 121 113 100 89 76 66 52 46 42 39 40 44 42 24 35 28 64 57 62 51 56 44 27 31 26 23 15 9 8 3 5 2 348 294 263 253 270
138 132 126 112 128 89 125 134 137 136 118 119 120 116 105 94 90 72 61 50 50 44 44 41 41 33 13 40 30 56 48 50 41 35 30 34 26 22 30 12 9 14 3 7 2 338 349 312 275
126 126 106 42 75 89 133 114 119 161 169 153 143 129 120 114 95 83 75 68 53 48 47 46 44 43 31 37 28 28 21 46 39 31 29 26 27 24 22 14 11 13 12 6 6 9 342 325 349
142 164 171 150 102 95 117 56 154 176 153 156 147 135 127 129 123 109 90 82 77 62 55 57 55 53 49 50 52 54 52 52 36 29 26 20 24 24 20 15 14 9 6 358 2 0 348 346 331
197 162 154 146 131 159 219 189 203 169 171 177 158 146 141 132 125 120 109 89 89 82 75 75 63 59 54 49 58 58 59 53 20 5 11 16 19 21 22 17 12 8 2 0 356 351 351 356 350
211 153 162 160 148 132 198 107 228 172 184 180 176 168 156 154 145 130 117 110 98 87 72 67 64 60 53 54 60 62 61 53 10 6 21 18 13 12 16 14 5 9 5 353 352 349 349 335 343
141 116 131 129 78 214 194 154 214 188 186 174 176 174 165 160 150 135 125 122 107 92 76 66 72 56 56 59 58 66 64 46 38 24 24 15 9 6 4 3 359 352 355 357 352 345 338 344 327
154 138 128 160 210 214 156 210 234 197 177 173 170 169 171 166 158 151 146 140 131 125 115 95 80 65 60 63 54 51 50 42 35 18 7 5 3 4 354 349 344 341 336 335 343 342 340 338 328
167 172 168 170 199 170 169 219 224 190 174 169 162 162 163 166 163 157 153 147 137 133 129 107 93 86 73 64 57 49 46 43 33 20 354 352 355 330 341 341 324 318 315 316 325 318 333 336 319
210 209 152 104 358 122 200 333 308 151 153 157 159 161 168 168 165 158 153 150 144 141 145 132 108 88 77 79 66 47 38 39 28 16 12 359 350 355 354 346 338 339 343 340 330 318 334 328 339
198 155 146 340 150 192 240 224 196 159 163 164 168 168 169 170 160 154 152 155 155 143 134 125 104 94 89 74 73 64 49 38 27 18 11 0 346 346 351 354 351 354 357 351 350 347 334 350 343
147 192 109 123 141 163 163 240 168 175 174 174 172 169 168 166 166 161 162 156 145 138 142 138 118 110 98 86 93 64 39 31 23 16 358 357 344 353 1 357 357 356 353 352 352 359 347 339 326
179 190 166 172 201 141 167 258 184 179 181 170 168 166 165 163 163 160 159 148 147 149 148 148 142 114 111 108 84 67 47 33 22 9 4 359 2 0 356 356 357 353 347 342 358 351 343 337 329